XML Sitemap

This is a XML Sitemap which is supposed to be processed by search engines which follow the XML Sitemap standard like Ask.com, Bing, Google and Yahoo.
It was generated using the WordPress content management system and the Google Sitemap Generator Plugin by Arne Brachhold.
You can find more information about XML sitemaps on sitemaps.org and Google's list of sitemap programs.

URLPriorityChange frequencyLast modified (GMT)
https://100frames.com/35-day-of-the-dead-tucson/50%Daily2019-03-10 11:45
https://100frames.com/35-elf-on-a-shelf-printable-calendar/50%Daily2019-03-10 11:42
https://100frames.com/34-what-day-was-thanksgiving-2019/50%Daily2019-03-10 11:41
https://100frames.com/35-2019-calendar-free-printable-monthly/50%Daily2019-03-10 11:39
https://100frames.com/34-365-day-calendar-printable/50%Daily2019-03-10 11:37
https://100frames.com/32-free-printable-editable-calendar-january-2019/50%Daily2019-03-10 11:36
https://100frames.com/33-work-schedule-maker-excel/50%Daily2019-03-10 11:35
https://100frames.com/32-free-printable-calendar-pieces-for-teachers-abc-pattern/50%Daily2019-03-10 11:33
https://100frames.com/31-july-calendar-2019-free-printable/50%Daily2019-03-10 11:31
https://100frames.com/32-blank-calendar-nov-2019/50%Daily2019-03-10 11:30
https://100frames.com/34-feb-2019-printable-calendar-pdf/50%Daily2019-03-10 11:29
https://100frames.com/34-baby-calendar-printable-2019/50%Daily2019-03-10 11:26
https://100frames.com/34-january-2019-printable-calendar-pinterest/50%Daily2019-03-10 11:26
https://100frames.com/35-free-printable-calendar-organizer/50%Daily2019-03-10 11:24
https://100frames.com/32-cute-calendar-september-2019-printable/50%Daily2019-03-10 11:20
https://100frames.com/33-december-2019-printable-vertical-calendar/50%Daily2019-03-10 11:20
https://100frames.com/33-blank-september-monthly-calendar-2019/50%Daily2019-03-10 11:18
https://100frames.com/31-15-month-calendar-2019-printable/50%Daily2019-03-10 11:16
https://100frames.com/35-make-your-own-calendar-online-free-printable/50%Daily2019-03-10 11:16
https://100frames.com/31-atlanta-public-schools-calendar/50%Daily2019-03-10 11:12
https://100frames.com/30-monthly-calendar-november-2019-printable/50%Daily2019-03-10 11:10
https://100frames.com/31-printable-january-2019-calendar-with-federal-holidays/50%Daily2019-03-10 11:11
https://100frames.com/31-june-2019-printable-holiday-calendar/50%Daily2019-03-10 11:08
https://100frames.com/30-insanity-max-30-full-video/50%Daily2019-03-10 11:05
https://100frames.com/32-free-printable-calendar-templates-july-2019/50%Daily2019-03-10 11:05
https://100frames.com/32-office-birthday-list-printable/50%Daily2019-03-10 11:04
https://100frames.com/35-december-calendar-printable-pinterest/50%Daily2019-03-10 11:02
https://100frames.com/31-factory-calendar-in-sap/50%Daily2019-03-10 11:00
https://100frames.com/30-printable-february-2019-calendar-word/50%Daily2019-03-10 10:59
https://100frames.com/33-calendar-june-july-august-2019-printable/50%Daily2019-03-10 10:57
https://100frames.com/30-august-2019-print-calendar/50%Daily2019-03-10 10:55
https://100frames.com/35-super-mario-calendar-printables/50%Daily2019-03-10 10:54
https://100frames.com/25-printable-workout-calendar-template/50%Daily2019-03-10 10:52
https://100frames.com/22-free-printable-week-calendar-with-time-slots/50%Daily2019-03-10 10:50
https://100frames.com/30-christmas-calendar-for-kids/50%Daily2019-03-10 10:49
https://100frames.com/35-hollywood-news-calendar/50%Daily2019-03-10 10:47
https://100frames.com/30-auctionzip-nc-calendar/50%Daily2019-03-10 10:45
https://100frames.com/33-free-printable-2019-monthly-calendar-with-canadian-holidays/50%Daily2019-03-10 10:44
https://100frames.com/31-january-printable-calendar/50%Daily2019-03-10 10:41
https://100frames.com/35-lala-ramswaroop-calendar-february-2019/50%Daily2019-03-10 10:41
https://100frames.com/34-preschool-weekly-calendar-printable-free/50%Daily2019-03-10 10:39
https://100frames.com/33-advent-calendar-printable-activities/50%Daily2019-03-10 10:37
https://100frames.com/32-catholic-church-calendar/50%Daily2019-03-10 10:35
https://100frames.com/31-2019-monthly-calendar-printable-watercolor/50%Daily2019-03-10 10:34
https://100frames.com/35-january-2019-printable-calendar-portrait/50%Daily2019-03-10 10:32
https://100frames.com/35-calendars-that-work/50%Daily2019-03-10 10:30
https://100frames.com/32-printable-september-2019-calendar-cute/50%Daily2019-03-10 10:29
https://100frames.com/32-printable-table-calendar/50%Daily2019-03-10 10:27
https://100frames.com/30-december-calendar-template-download/50%Daily2019-03-10 10:26
https://100frames.com/33-printable-calendar-organized-home/50%Daily2019-03-10 10:25
https://100frames.com/32-free-printable-2019-yearly-calendar/50%Daily2019-03-10 10:23
https://100frames.com/32-printable-hebrew-calendar/50%Daily2019-03-10 10:20
https://100frames.com/30-december-2019-printable-calendar-free/50%Daily2019-03-10 10:20
https://100frames.com/34-printable-2019-calendar-monthly/50%Daily2019-03-10 10:17
https://100frames.com/31-2-page-per-month-printable-calendar/50%Daily2019-03-10 10:15
https://100frames.com/24-awesome-examples-abc-family-25-days-of-christmas-2019-schedule-printable-calendar/50%Daily2019-03-10 10:15
https://100frames.com/21-family-wall-calendar/50%Daily2019-03-10 10:13
https://100frames.com/34-printable-calendar-month-of-april-2019/50%Daily2019-03-10 10:11
https://100frames.com/31-printable-free-november-2019-calendar/50%Daily2019-03-10 10:11
https://100frames.com/35-walmart-custom-calendar/50%Daily2019-03-10 10:08
https://100frames.com/31-printable-vertical-calendar-november-2019/50%Daily2019-03-10 10:05
https://100frames.com/33-december-2019-calendar-with-holidays/50%Daily2019-03-10 10:05
https://100frames.com/32-monthly-calendar-with-notes-portrait-printable-free/50%Daily2019-03-10 10:03
https://100frames.com/30-dec-2019-to-jan-2019-calendar/50%Daily2019-03-10 10:00
https://100frames.com/31-free-printable-december-2019/50%Daily2019-03-10 10:00
https://100frames.com/32-free-printable-february-calendar-numbers/50%Daily2019-03-10 09:57
https://100frames.com/31-advent-calendar-for-teenage-girl-2019/50%Daily2019-03-10 09:55
https://100frames.com/31-blank-october-calendar/50%Daily2019-03-10 09:55
https://100frames.com/34-march-printable-calendar-imom/50%Daily2019-03-10 09:52
https://100frames.com/30-magnetic-refrigerator-calendar/50%Daily2019-03-10 09:50
https://100frames.com/32-printable-small-pocket-calendar-2019/50%Daily2019-03-10 09:51
https://100frames.com/31-printable-computer-calendars/50%Daily2019-03-10 09:48
https://100frames.com/34-printable-3-day-calendar/50%Daily2019-03-10 09:45
https://100frames.com/32-november-printable-calendar-2019-portrait/50%Daily2019-03-10 09:46
https://100frames.com/25-february-calender/50%Daily2019-03-10 09:43
https://100frames.com/34-august-2019-calendar-printable-free-pdf/50%Daily2019-03-10 09:41
https://100frames.com/32-printable-calendar-program/50%Daily2019-03-10 09:40
https://100frames.com/35-free-printable-december-2019-calendar-pdf/50%Daily2019-03-10 09:39
https://100frames.com/31-printable-advent-calendar-craft/50%Daily2019-03-10 09:36
https://100frames.com/24-printable-calendars-2019-with-holidays-highlighted/50%Daily2019-03-10 09:35
https://100frames.com/31-printable-calendar-march-2019-with-holidays/50%Daily2019-03-10 09:34
https://100frames.com/33-free-printable-appointment-calendar-with-times/50%Daily2019-03-10 09:31
https://100frames.com/33-education-world-printable-calendars/50%Daily2019-03-10 09:31
https://100frames.com/35-print-august-2019-calendar/50%Daily2019-03-10 09:29
https://100frames.com/35-printable-december-holiday-calendar-2019/50%Daily2019-03-10 09:27
https://100frames.com/35-calendar-january-and-february-2019/50%Daily2019-03-10 09:26
https://100frames.com/21-presidential-primary-calendar-2019-printable/50%Daily2019-03-10 09:24
https://100frames.com/33-2019-blank-printable-calendar-pdf/50%Daily2019-03-10 09:22
https://100frames.com/32-blank-calendar-november-2019/50%Daily2019-03-10 09:20
https://100frames.com/34-2019-calendar-with-weeks-printable/50%Daily2019-03-10 09:20
https://100frames.com/34-free-printable-calendars-organize/50%Daily2019-03-10 09:17
https://100frames.com/33-google-calendar-meeting-scheduler/50%Daily2019-03-10 09:15
https://100frames.com/32-printable-check-off-calendar/50%Daily2019-03-10 09:14
https://100frames.com/35-september-2019-calendar-printable-tumblr/50%Daily2019-03-10 09:12
https://100frames.com/31-june-2019-holidays/50%Daily2019-03-10 09:10
https://100frames.com/33-april-2019-printable-calendar-portrait/50%Daily2019-03-10 09:09
https://100frames.com/31-blank-november-calendar-template-2019/50%Daily2019-03-10 09:07
https://100frames.com/35-dec-2019-calendar/50%Daily2019-03-10 09:06
https://100frames.com/35-month-of-march-printable-calendar/50%Daily2019-03-10 09:04
https://100frames.com/31-printable-november-2019-calendar-no-download/50%Daily2019-03-10 09:01
https://100frames.com/31-july-editable-calendar-2019/50%Daily2019-03-10 09:01
https://100frames.com/33-printable-square-november-2019-calendar/50%Daily2019-03-10 08:59
https://100frames.com/30-printable-assignment-calendar/50%Daily2019-03-10 08:57
https://100frames.com/30-pokemon-calendar-2019-printable/50%Daily2019-03-10 08:56
https://100frames.com/35-birthday-printable-calendar/50%Daily2019-03-10 08:55
https://100frames.com/30-large-november-calendar-2019-printable/50%Daily2019-03-10 08:52
https://100frames.com/34-printable-2019-mini-calendar/50%Daily2019-03-10 08:51
https://100frames.com/31-march-2019-printable-calendar-cute/50%Daily2019-03-10 08:50
https://100frames.com/30-2019-calendar-holidays-usa/50%Daily2019-03-10 08:47
https://100frames.com/23-free-printable-landscape-calendar-aug-2019/50%Daily2019-03-10 08:45
https://100frames.com/33-printable-calendar-of-may-and-june-2019/50%Daily2019-03-10 08:44
https://100frames.com/30-printable-calendar-july-dec-2019/50%Daily2019-03-10 08:42
https://100frames.com/26-june-2019-calendar/50%Daily2019-03-10 08:40
https://100frames.com/33-5-day-printable-monthly-calendar/50%Daily2019-03-10 08:39
https://100frames.com/34-novemebr-2019-printable-calendars/50%Daily2019-03-10 08:37
https://100frames.com/22-free-printable-vacation-countdown-calendar/50%Daily2019-03-10 08:35
https://100frames.com/33-december-printable-calendar-2019-2020/50%Daily2019-03-10 08:35
https://100frames.com/19-usps-2019-calendar/50%Daily2019-03-10 08:32
https://100frames.com/30-october-2019-calendar-template/50%Daily2019-03-10 08:30
https://100frames.com/33-july-2019-calendar-printable-microsoft/50%Daily2019-03-10 08:30
https://100frames.com/33-at-a-glance-calendar-printable/50%Daily2019-03-10 08:27
https://100frames.com/35-calendar-for-nov-2019-printable/50%Daily2019-03-10 08:25
https://100frames.com/31-june-july-calendar/50%Daily2019-03-10 08:25
https://100frames.com/31-calendars-2019-november/50%Daily2019-03-10 08:22
https://100frames.com/30-blank-june-5-9-2019-calendar-printable/50%Daily2019-03-10 08:20
https://100frames.com/33-free-august-2019-calendar/50%Daily2019-03-10 08:20
https://100frames.com/33-4-week-calendar-printable/50%Daily2019-03-10 08:18
https://100frames.com/30-august-calendar-template-doc/50%Daily2019-03-10 08:16
https://100frames.com/4-56-2019-calendar-hong-kong/50%Daily2019-03-10 08:15
https://100frames.com/31-june-and-july-2019-calendar/50%Daily2019-03-10 08:12
https://100frames.com/34-printable-5-week-lined-calendar/50%Daily2019-03-10 08:10
https://100frames.com/33-printable-calendar-power-of-praying-wife/50%Daily2019-03-10 08:10
https://100frames.com/35-printable-bill-calendar/50%Daily2019-03-10 08:07
https://100frames.com/30-printable-advent-calendar-labels/50%Daily2019-03-10 08:05
https://100frames.com/30-free-april-calendar-2019/50%Daily2019-03-10 08:04
https://100frames.com/32-2019-calendar-with-major-holidays-printable/50%Daily2019-03-10 08:02